Asheville, NC

6:26 AM EDT on March 28, 2017 (GMT -0400)
Asheville Regional

Weather History for KAVL - September, 2013

Change the Weather History Date:

Sunday, September 22, 2013

  Actual Average Record
Temperature  
Mean Temperature 64 °F 64 °F  
Max Temperature 72 °F 75 °F 91 °F (1933)
Min Temperature 55 °F 54 °F 35 °F (1918)
Degree Days  
Heating Degree Days 1 3  
Month to date heating degree days 5 23  
Since 1 July heating degree days 10 25  
Cooling Degree Days 0 2  
Month to date cooling degree days 105 84  
Year to date cooling degree days 843 841  
Growing Degree Days 14 (Base 50)    
Moisture  
Dew Point 54 °F    
Average Humidity 70    
Maximum Humidity 93    
Minimum Humidity 47    
Precipitation  
Precipitation 0.01 in 0.12 in 2.12 in (2003)
Month to date precipitation 1.94 2.87  
Year to date precipitation 60.70 34.48  
Snow  
Snow 0.00 in 0.00 in 0.00 in ()
Month to date snowfall 0.0 0.0  
Since 1 July snowfall 0.0 0.0  
Since 1 September snowfall 0.0 0.0  
Snow Depth 0.00 in    
Sea Level Pressure  
Sea Level Pressure 29.84 in    
Wind  
Wind Speed 9 mph (NNW)    
Max Wind Speed 18 mph    
Max Gust Speed 24 mph    
Visibility 10 miles    
Events Rain    
T = Trace of Precipitation, MM = Missing Value Source: NWS Daily Summary

Daily Weather History Graph

Daily Weather History Graph

Search for Another Location

Airport or City:

Trip Planner

Search our weather history database for the weather conditions in past years. The results will help you decide how hot, cold, wet, or windy it might be!

Date:

Astronomy

Sep. 22, 2013 Rise Set
Actual Time 7:18 AM EDT 7:26 PM EDT
Civil Twilight 6:52 AM EDT 7:51 PM EDT
Nautical Twilight 6:23 AM EDT 8:21 PM EDT
Astronomical Twilight 5:53 AM EDT 8:51 PM EDT
Moon 9:24 PM EDT (9/22) 10:29 AM EDT (9/22)
Length of Visible Light 12h 59m
Length of Day
12h 08m
Waning Gibbous, 89% of the Moon is Illuminated
Sep 22
Waning Gibbous
Sep 26
Last Quarter
Oct 4
New
Oct 11
First Quarter
Oct 18
Full

Hourly Weather History & Observations

Time (EDT) Temp. Dew Point Humidity Pressure Visibility Wind Dir Wind Speed Gust Speed Precip Events Conditions
12:28 AM 60.8 °F 59.0 °F 94% 29.83 in 10.0 mi North 10.4 mph - N/A   Overcast
12:38 AM 60.8 °F 60.8 °F 100% 29.83 in 10.0 mi NNW 9.2 mph - N/A   Overcast
12:54 AM 61.0 °F 60.1 °F 97% 29.77 in 8.0 mi North 10.4 mph - 0.00 in Rain Light Rain
1:08 AM 60.8 °F 59.0 °F 94% 29.82 in 10.0 mi North 10.4 mph - 0.00 in Rain Light Rain
1:34 AM 60.8 °F 57.2 °F 88% 29.83 in 10.0 mi NNW 10.4 mph - 0.01 in   Mostly Cloudy
1:54 AM 60.1 °F 57.0 °F 90% 29.77 in 10.0 mi North 8.1 mph - 0.01 in   Scattered Clouds
2:04 AM 60.8 °F 57.2 °F 88% 29.83 in 10.0 mi North 9.2 mph - N/A   Mostly Cloudy
2:17 AM 59.0 °F 57.2 °F 94% 29.83 in 10.0 mi North 10.4 mph - N/A   Overcast
2:43 AM 60.8 °F 57.2 °F 88% 29.83 in 10.0 mi NNW 11.5 mph - N/A   Mostly Cloudy
2:54 AM 60.1 °F 57.0 °F 90% 29.78 in 10.0 mi NNW 13.8 mph - N/A   Mostly Cloudy
3:54 AM 59.0 °F 55.0 °F 87% 29.79 in 10.0 mi NNW 13.8 mph 21.9 mph N/A   Scattered Clouds
4:54 AM 57.9 °F 55.0 °F 90% 29.80 in 10.0 mi North 9.2 mph - N/A   Clear
5:54 AM 57.0 °F 54.0 °F 89% 29.82 in 10.0 mi North 8.1 mph - N/A   Clear
6:54 AM 55.9 °F 53.1 °F 90% 29.83 in 10.0 mi North 10.4 mph - N/A   Clear
7:54 AM 55.9 °F 52.0 °F 87% 29.84 in 10.0 mi North 9.2 mph - N/A   Clear
8:54 AM 60.1 °F 53.1 °F 78% 29.85 in 10.0 mi North 11.5 mph - N/A   Clear
9:54 AM 62.1 °F 53.1 °F 72% 29.86 in 10.0 mi North 13.8 mph - N/A   Clear
10:54 AM 64.0 °F 51.1 °F 63% 29.87 in 10.0 mi North 9.2 mph - N/A   Clear
11:54 AM 66.9 °F 51.1 °F 57% 29.86 in 10.0 mi NNW 9.2 mph - N/A   Clear
12:54 PM 68.0 °F 48.9 °F 50% 29.86 in 10.0 mi North 10.4 mph - N/A   Clear
1:54 PM 69.1 °F 48.9 °F 49% 29.85 in 10.0 mi North 11.5 mph 18.4 mph N/A   Clear
2:54 PM 71.1 °F 51.1 °F 49% 29.83 in 10.0 mi North 12.7 mph 18.4 mph N/A   Clear
3:54 PM 72.0 °F 51.1 °F 48% 29.83 in 10.0 mi NNW 13.8 mph - N/A   Clear
4:54 PM 72.0 °F 52.0 °F 49% 29.83 in 10.0 mi North 9.2 mph - N/A   Clear
5:54 PM 70.0 °F 52.0 °F 53% 29.85 in 10.0 mi North 11.5 mph 24.2 mph N/A   Clear
6:54 PM 66.0 °F 53.1 °F 63% 29.86 in 10.0 mi NNW 11.5 mph - N/A   Clear
7:54 PM 63.0 °F 52.0 °F 67% 29.88 in 10.0 mi North 5.8 mph - N/A   Clear
8:54 PM 62.1 °F 52.0 °F 70% 29.90 in 10.0 mi North 6.9 mph - N/A   Clear
9:54 PM 59.0 °F 52.0 °F 78% 29.92 in 10.0 mi NW 4.6 mph - N/A   Mostly Cloudy
10:54 PM 57.0 °F 53.1 °F 87% 29.94 in 10.0 mi Calm Calm - N/A   Partly Cloudy
11:54 PM 55.9 °F 53.1 °F 90% 29.94 in 10.0 mi NNW 4.6 mph - N/A   Mostly Cloudy